Regional Weather Roundup
Issued by NWS Glasgow, MT

Home | Current Version | Previous Version | Text Only | Print | Product List | Glossary On
Versions: 1 2 3 4 5 6 7 8 9 10 11 12 13 14 15 16 17 18 19 20 21 22 23 24 25 26 27 28 29 30 31 32 33 34 35 36 37 38 39 40 41 42 43 44 45 46 47 48 49 50
000
ASUS45 KGGW 050015
RWRGGW
HOURLY WEATHER ROUNDUP FOR NORTHEAST MONTANA
NATIONAL WEATHER SERVICE GLASGOW MONTANA
500 PM MST WED MAR 04 2015

NOTE: "FAIR" INDICATES FEW OR NO CLOUDS BELOW 12,000 FEET WITH NO
SIGNIFICANT WEATHER AND/OR OBSTRUCTIONS TO VISISBILITY.

NORTHEAST MONTANA


CITY           SKY/WX    TMP DP  RH WIND       PRES   REMARKS
GLASGOW        CLEAR     17  -5  37 S3        30.17F
6HR MIN TEMP:   7; 6HR MAX TEMP:  19;

PLENTYWOOD       N/A      4  -8  57 E3          N/A
WOLF POINT     CLEAR     17  -5  37 SW7       30.23F
JORDAN           N/A     24  -3  30 S7        30.13F
WINNETT          N/A     33  -1  23 W3G12       N/A
SIDNEY         CLEAR     12 -11  34 W3        30.28F
GLENDIVE       CLEAR     18  -6  35 W9        30.21F
MALTA            N/A     27   3  35 S3G12       N/A
SCOBEY           N/A     12 -10  36 SW8       30.14

FORT PECK REPORTS


CITY           SKY/WX    TMP DP  RH WIND       PRES   REMARKS
FORT PECK        N/A     17   2  51 SE5         N/A
THE PINES        N/A     22   2  42 E3          N/A

SOUTHEAST MONTANA


CITY           SKY/WX    TMP DP  RH WIND       PRES   REMARKS
BILLINGS       MOSUNNY   30   8  39 SW14      30.07F
MILES CITY     CLEAR     23  -5  29 NW7       30.18F
BAKER          CLEAR     16  -4  41 NW9       30.18F
LIVINGSTON     MOSUNNY   32   7  35 W18G24    30.05F

CENTRAL MONTANA


CITY           SKY/WX    TMP DP  RH WIND       PRES   REMARKS
HAVRE          PTCLDY    32   6  33 SW9       30.04F
LEWISTOWN      SUNNY     26   9  48 S5        30.03F
GREAT FALLS    SUNNY     35  10  35 SW21G28   29.99F
CUT BANK       SUNNY     34   9  35 W24G31    29.95F
HELENA         SUNNY     38   6  26 W15       30.07F
BUTTE          SUNNY     33   5  30 N7        30.07S
BOZEMAN        SUNNY     31   6  35 SE6       30.11F

WESTERN MONTANA


CITY           SKY/WX    TMP DP  RH WIND       PRES   REMARKS
MISSOULA       SUNNY     38  14  37 S5        30.18F
KALISPELL      NOT AVBL

NORTH DAKOTA


CITY           SKY/WX    TMP DP  RH WIND       PRES   REMARKS
WILLISTON        N/A      7  -9  48 MISG      30.28F
DICKINSON      CLEAR     11  -9  40 NW8       30.20S
MINOT          CLEAR     -1 -13  56 W9        30.31F
BISMARCK       CLEAR      5 -10  50 NW7       30.34S

SOUTHERN SASKATCHEWAN


CITY           SKY/WX    TMP DP  RH WIND       PRES   REMARKS
REGINA         PTCLDY    -8 -15  71 S8        30.23
MOOSE JAW      PTCLDY     0 -11  60 S5        30.21
ESTEVAN        PTCLDY    -6 -17  59 W7        30.29
SWIFT CURRENT  PTCLDY    10   0  61 S7        30.05




USA.gov is the U.S. government's official web portal to all federal, state and local government web resources and services.